Temperature
18 19 19 19 20 20 19 18 17 18 18 18 18 18 19 19 19 18 18 18 18 18 18 18 18 18 18 17 17 17 17 16 16 16 16 16 16 15 15 15 15 15 15 14
18 19 19 19 20 20 20 19 19 18 18 19 19 19 19 19 18 18 18 18 18 18 18 18 18 18 18 17 17 17 17 16 16 16 16 16 15 15 15 15 15 14 14 14
17 18 19 18 19 20 19 20 19 18 18 18 18 18 19 19 19 18 18 18 18 18 19 18 18 18 18 17 17 17 16 16 16 16 16 16 15 15 15 15 15 14 14 14
16 18 18 19 19 20 19 19 19 19 18 18 19 19 19 19 19 19 19 19 19 19 19 18 18 18 17 17 17 17 16 16 16 16 16 15 15 15 15 15 14 14 14 14
15 16 17 19 20 20 19 19 19 18 18 18 19 19 18 19 19 19 19 19 19 19 19 18 18 18 17 17 17 16 16 16 16 16 16 15 15 15 15 14 14 14 14 13
15 17 17 18 19 20 19 18 18 18 18 18 18 16 17 19 19 19 19 19 19 19 18 18 18 18 17 17 17 16 16 16 16 15 15 15 15 15 14 14 14 14 13 13
15 16 16 17 18 19 18 18 19 19 18 18 17 18 19 19 19 19 19 19 19 19 18 18 18 17 17 17 17 17 16 16 15 15 15 15 15 14 14 14 14 13 13 13
15 16 17 18 18 18 17 19 19 19 19 19 19 19 19 19 19 19 19 19 19 18 18 18 18 17 17 17 17 16 16 16 15 15 15 15 14 14 14 13 13 13 13 13
15 16 17 18 18 19 19 19 19 19 19 19 19 19 19 19 19 19 19 18 18 18 18 18 17 17 17 17 16 16 16 15 15 15 15 14 14 14 13 13 13 13 12 12
15 15 16 18 18 19 19 19 19 19 19 19 19 19 19 19 18 18 18 18 18 18 18 17 17 17 17 17 16 16 16 15 15 15 15 14 14 14 13 13 13 13 12 12
14 15 16 17 18 18 18 19 19 19 19 19 19 18 18 18 18 18 18 18 18 18 18 17 17 17 16 16 16 16 15 15 15 14 14 14 14 13 13 13 13 13 13 12
14 15 15 17 17 18 18 18 18 18 18 18 18 18 18 18 18 18 18 17 17 17 17 17 17 16 16 16 16 15 15 15 15 14 14 14 13 13 13 12 12 12 12 12
17 17 17 17 17 17 17 17 17 17 18 18 18 18 18 17 17 17 17 17 17 17 17 16 16 16 16 15 15 15 15 15 14 14 14 13 13 13 12 12 12 11 11 11
17 17 16 16 16 17 17 17 17 17 17 17 17 17 17 17 17 17 17 16 16 16 16 16 16 15 15 15 15 15 14 14 14 14 13 13 13 13 12 12 11 11 11 11
16 16 16 16 16 16 16 16 16 16 16 16 16 16 16 16 16 16 16 16 16 16 15 15 15 15 15 15 14 14 14 14 13 13 13 13 12 12 12 11 11 11 10 10
15 15 15 15 15 15 15 15 15 15 15 15 15 15 15 15 15 15 15 15 15 15 15 15 15 14 14 14 14 14 13 13 13 13 12 12 12 11 11 11 10 10 10 10
15 14 14 14 14 14 14 14 14 14 14 14 14 14 14 14 14 14 14 14 14 14 14 14 14 14 14 13 13 13 13 12 12 12 12 11 11 11 11 10 10 10 10 9
14 14 14 14 14 13 13 14 14 14 14 14 14 14 13 13 13 13 13 13 13 13 13 13 13 13 13 13 13 13 12 12 12 11 11 11 10 10 10 10 9 9 9 9
13 13 13 13 13 13 13 13 13 13 13 13 13 13 13 13 13 13 13 13 13 13 13 12 12 12 12 12 12 12 12 11 11 11 10 10 10 9 9 9 9 9 8 8
12 12 12 12 12 12 12 12 12 12 12 12 12 12 12 12 12 12 12 12 12 12 12 12 12 12 12 11 11 11 11 11 10 10 10 9 9 9 9 8 8 8 8 8
12 12 12 12 12 12 12 12 12 12 12 12 12 11 11 11 11 11 11 11 11 11 11 11 11 11 11 11 11 10 10 10 10 9 9 9 9 8 8 8 8 7 7 7
11 11 11 11 11 11 11 11 11 11 11 11 11 11 11 11 11 10 10 10 10 10 10 10 10 10 10 10 10 10 9 9 9 9 9 8 8 8 7 7 7 7 6 6
10 10 10 10 10 10 10 10 10 10 10 10 10 10 10 10 10 10 10 10 10 10 10 10 10 9 9 9 9 9 9 9 8 8 8 8 7 7 7 6 6 6 6 6
9 9 9 9 9 9 9 9 9 9 9 9 9 9 10 9 9 9 9 9 9 9 9 9 9 9 9 8 8 8 8 8 7 7 7 7 7 6 6 6 6 5 5 5
9 9 9 9 9 9 9 9 8 8 8 9 9 9 9 9 9 9 9 9 8 8 8 8 8 8 8 8 7 7 7 7 7 7 6 6 6 6 6 5 5 5 5 4
8 8 8 8 8 8 8 8 8 8 8 8 8 8 8 8 8 8 8 8 8 8 8 7 7 7 7 7 7 6 6 6 6 6 6 6 5 5 5 5 5 4 4 4
8 8 8 8 8 8 8 7 7 7 7 7 7 7 7 7 7 7 7 7 7 7 7 7 7 6 6 6 6 6 6 5 5 5 5 5 5 5 4 4 4 4 3 3
Wind_Speed
6 7 5 5 7 6 7 8 8 8 8 9 9 9 9 9 9 9 10 11 13 13 11 11 11 10 10 10 9 9 9 8 8 7 7 7 7 6 6 6 6 5 5 5
4 6 5 6 8 7 7 6 6 5 7 7 5 5 6 8 11 11 11 12 13 12 12 13 12 12 11 10 10 10 10 9 8 8 7 7 7 7 7 6 5 6 5 5
4 5 2 5 7 6 5 5 6 7 8 4 4 7 9 10 11 12 12 12 13 13 13 13 13 12 12 11 9 10 10 9 9 9 8 8 8 7 6 6 6 6 5 5
1 2 3 6 3 3 3 2 3 3 3 5 7 7 6 7 10 11 11 12 12 12 12 11 10 10 11 10 10 10 10 9 9 9 9 8 8 7 6 5 6 5 4 4
3 2 5 5 2 2 4 2 2 2 1 2 3 5 1 4 7 10 11 11 10 11 11 11 12 12 11 10 10 10 10 10 9 10 10 9 8 7 6 5 5 4 4 4
4 3 4 5 5 3 3 1 3 2 3 2 5 3 4 4 5 6 7 7 8 9 9 11 11 12 12 11 11 11 10 10 9 10 10 10 9 7 5 5 5 5 4 4
4 4 6 6 6 2 4 4 3 2 3 4 4 5 4 4 4 5 6 6 8 9 11 11 12 13 13 12 12 11 9 9 9 9 9 9 7 6 6 6 6 5 4 2
4 3 6 4 2 4 4 3 2 1 2 3 2 2 3 5 5 5 6 6 7 8 9 9 11 13 12 12 10 9 10 9 9 8 8 8 8 6 6 7 7 5 4 2
5 5 4 2 2 2 2 1 0 1 1 3 3 2 3 4 5 6 6 6 6 8 9 8 10 12 13 10 10 11 10 9 8 8 7 7 8 8 6 6 6 5 4 3
2 2 2 1 2 2 1 1 1 1 3 4 3 3 4 4 4 5 5 6 6 8 9 8 8 10 10 10 11 12 11 9 8 8 7 6 6 6 6 6 6 6 5 4
1 2 1 3 2 2 3 4 4 3 2 3 4 3 4 4 4 5 5 5 7 8 9 8 8 8 8 10 11 11 10 9 8 7 7 6 5 5 7 7 8 8 7 6
4 5 4 3 2 2 4 3 3 3 4 3 3 4 4 4 4 5 5 5 6 6 7 7 8 8 8 9 11 11 9 8 7 6 6 6 5 3 2 3 6 8 8 7
3 3 3 2 1 2 3 3 3 3 3 3 2 3 5 4 3 4 5 5 6 7 7 7 8 8 8 9 10 11 10 8 7 6 6 6 6 6 4 0 1 4 7 7
2 4 3 2 2 2 4 4 5 5 4 4 3 4 5 5 4 4 4 4 5 6 7 7 8 7 7 9 9 9 8 8 7 6 6 6 6 6 5 5 4 2 3 5
2 3 4 3 3 3 4 5 6 5 5 5 4 5 5 5 4 3 3 4 6 6 5 6 7 6 6 8 9 8 7 6 6 5 5 5 5 4 4 5 4 3 1 2
2 4 5 5 4 3 4 4 4 3 3 3 4 4 4 4 4 4 4 5 7 6 5 6 6 5 7 8 8 7 6 7 6 5 5 4 4 4 4 4 4 4 4 3
5 3 4 3 3 3 3 2 3 2 2 3 3 4 5 5 5 5 3 3 4 4 4 5 5 5 6 7 8 6 5 5 7 5 4 5 4 5 5 4 4 4 4 4
5 5 4 5 4 4 3 3 3 3 3 3 4 5 5 5 4 3 2 3 4 4 2 3 4 5 6 6 6 5 5 5 4 5 4 4 4 4 4 4 4 3 2 2
5 5 4 4 4 4 3 3 3 3 3 4 5 4 3 3 3 3 3 4 4 2 0 2 5 6 5 5 6 5 5 5 4 4 4 5 4 3 3 3 3 3 3 2
5 5 5 5 4 4 4 3 3 3 3 4 5 4 3 2 3 3 4 2 1 2 2 3 5 5 5 5 6 4 5 5 4 4 4 4 4 3 3 3 3 3 3 3
5 5 5 5 4 3 3 3 3 3 2 3 4 3 2 1 2 3 3 1 2 0 2 5 4 4 4 5 6 4 4 4 4 4 4 4 4 3 3 3 3 3 3 3
4 4 4 4 4 3 2 2 3 3 3 3 3 3 2 1 1 1 1 2 1 2 2 2 2 4 6 6 4 4 4 4 4 3 3 3 3 3 3 3 3 3 3 3
3 3 3 3 3 2 2 2 2 2 2 2 2 2 2 2 2 3 1 1 1 3 3 2 4 6 7 5 4 4 4 4 3 3 3 3 3 3 3 3 3 2 2 2
3 3 3 3 3 4 3 2 2 2 2 2 1 1 2 2 1 0 1 2 3 4 3 3 6 6 6 3 4 3 3 3 3 3 3 3 3 2 2 2 2 2 2 3
3 3 3 4 3 2 1 1 2 3 3 2 2 2 1 1 2 1 1 2 4 5 3 4 6 6 4 3 3 3 3 2 2 2 2 2 2 2 2 2 2 2 2 2
3 3 2 2 2 2 1 2 1 1 1 1 1 1 1 1 1 1 2 2 3 4 3 2 3 3 3 2 3 3 3 2 2 2 2 2 2 2 2 2 2 1 1 2
3 2 2 2 1 1 2 2 2 1 1 2 0 1 1 1 1 1 2 2 2 2 2 2 2 2 3 3 3 2 2 2 2 2 2 2 2 2 2 2 1 1 1 2
Wind_Direction
230 240 233 234 246 229 204 196 202 231 229 238 226 211 200 189 178 171 173 175 177 178 177 176 173 172 170 169 164 157 152 154 159 154 143 135 131 127 122 118 117 118 109 98
276 257 255 262 255 238 227 215 215 227 252 245 221 179 174 178 175 178 184 184 183 179 174 175 175 173 169 168 167 158 157 161 156 147 141 139 137 129 123 118 112 110 108 105
267 286 318 279 253 219 218 226 195 214 237 230 177 179 184 182 179 183 187 187 183 183 180 178 176 172 171 170 162 157 158 158 156 151 147 148 142 132 131 130 120 115 116 111
224 25 234 247 259 174 173 246 216 195 210 200 198 190 179 180 182 185 185 186 185 182 179 176 170 165 163 158 158 158 158 160 159 154 152 149 142 142 146 140 134 131 130 123
144 214 275 293 300 193 178 253 252 168 193 217 143 88 32 201 186 187 187 187 185 181 175 170 166 161 154 156 158 160 163 167 166 159 155 153 153 156 154 143 138 136 136 129
142 170 237 257 287 278 122 287 308 168 171 141 110 132 239 225 184 174 175 173 171 166 161 164 165 156 156 162 163 171 173 170 165 161 158 160 161 158 151 144 142 137 127 128
163 204 256 268 290 62 130 239 276 196 172 154 158 195 216 183 168 158 157 161 159 158 164 171 164 159 163 166 176 176 165 160 161 161 160 158 153 151 145 137 129 129 128 123
152 189 248 289 70 141 209 252 214 177 167 160 161 135 134 147 152 149 143 144 150 155 162 164 164 163 167 176 176 158 153 156 162 160 159 155 147 147 144 140 137 138 132 121
177 207 247 290 176 203 161 140 201 161 161 129 124 128 139 145 148 154 152 151 150 153 153 156 164 165 170 174 158 151 152 158 161 155 153 152 152 152 150 150 154 160 159 170
134 268 293 358 31 28 60 109 76 114 127 129 131 145 139 141 146 150 151 152 147 144 151 160 165 165 167 161 156 153 158 162 160 155 152 152 156 160 163 169 170 174 179 187
155 241 47 18 15 41 54 56 59 57 86 126 128 136 140 141 147 154 154 150 148 154 160 164 161 155 154 156 154 154 157 160 160 160 159 160 164 176 181 191 187 184 191 188
207 216 177 220 288 89 83 64 64 66 56 64 118 139 135 136 139 143 146 144 145 148 153 158 156 154 154 157 156 154 158 162 165 164 164 165 163 159 192 190 195 193 191 188
193 199 174 170 81 78 89 74 63 75 97 96 79 110 126 125 127 124 129 141 154 159 159 158 156 158 162 159 158 159 163 165 165 166 169 171 172 171 177 231 186 197 199 198
129 112 107 105 96 75 79 69 60 56 60 78 79 89 107 106 104 112 131 150 149 148 151 154 155 163 163 156 154 157 158 163 164 169 172 176 180 182 180 181 191 226 231 211
67 120 149 130 96 80 78 79 69 53 52 56 70 85 98 107 113 119 114 113 113 119 133 141 147 155 155 155 156 157 157 161 162 162 165 171 173 173 178 183 186 191 198 237
85 89 99 98 95 84 83 90 88 64 65 78 81 84 93 102 97 88 91 110 117 128 142 146 153 159 152 150 148 153 158 155 151 153 156 161 166 170 177 181 185 190 200 209
120 114 110 106 103 91 86 100 113 104 79 84 100 99 94 92 86 79 79 102 123 131 140 147 154 151 151 153 150 152 150 156 150 150 161 168 171 177 182 182 188 198 214 212
142 152 152 147 140 118 90 82 93 96 98 96 95 92 96 106 114 115 105 99 92 81 95 141 143 144 146 148 147 146 151 157 163 167 166 167 168 170 170 176 186 193 206 211
105 111 110 108 115 115 106 96 93 95 95 99 98 98 98 103 111 105 97 99 108 116 236 146 136 141 144 147 143 145 151 153 155 157 160 163 162 165 172 179 185 189 188 184
97 97 95 90 89 98 102 101 93 86 90 102 101 92 85 86 100 101 94 95 195 208 178 141 142 147 150 148 135 143 150 153 155 158 156 160 168 174 180 184 186 189 193 198
105 99 96 93 84 81 90 98 104 97 90 103 113 120 124 110 107 115 113 106 303 32 121 131 139 150 152 147 135 142 149 153 157 162 164 166 170 173 177 183 187 192 198 204
106 104 101 97 92 72 56 80 100 104 99 93 99 107 108 101 98 94 130 200 214 138 123 138 149 145 142 135 137 142 149 153 156 157 162 168 173 180 189 191 196 204 205 206
113 112 106 105 104 88 56 59 74 97 108 113 125 132 140 162 154 143 206 269 169 133 121 136 139 134 133 131 134 141 144 150 157 162 168 177 183 187 190 194 198 201 206 213
114 108 104 97 89 82 67 39 48 72 88 87 98 128 136 127 69 308 185 162 142 126 120 124 121 122 123 128 132 138 145 153 160 163 167 172 177 180 187 191 196 206 212 217
124 117 108 103 100 108 120 78 63 60 66 60 43 31 47 135 158 188 139 129 130 125 119 123 121 117 116 124 130 135 143 154 158 160 169 174 177 176 181 184 188 198 212 224
137 138 142 145 150 152 142 119 102 75 98 88 33 22 34 62 90 93 107 121 125 121 119 120 121 115 116 122 128 134 142 146 135 136 157 164 165 168 178 184 191 199 217 236
116 112 107 89 76 106 117 120 128 140 156 149 122 340 11 64 79 87 97 105 113 115 115 114 118 120 123 125 128 132 137 138 137 143 151 155 160 170 183 186 193 206 233 246
Height
1502 1497 1497 1497 1496 1496 1501 1504 1511 1505 1500 1493 1489 1488 1489 1491 1494 1497 1500 1503 1506 1509 1513 1517 1521 1525 1529 1533 1537 1540 1543 1546 1548 1551 1553 1554 1556 1557 1558 1559 1559 1560 1561 1561
1501 1494 1495 1496 1492 1492 1493 1493 1496 1496 1495 1486 1485 1486 1488 1489 1492 1495 1497 1500 1503 1507 1510 1514 1518 1522 1527 1531 1534 1538 1541 1544 1547 1549 1551 1553 1554 1556 1557 1558 1559 1559 1560 1561
1508 1498 1496 1501 1490 1488 1489 1487 1489 1494 1490 1484 1484 1484 1485 1487 1489 1491 1494 1497 1500 1504 1507 1511 1515 1520 1524 1528 1532 1536 1539 1542 1545 1547 1549 1551 1553 1554 1556 1557 1558 1559 1559 1560
1507 1504 1511 1496 1481 1481 1484 1484 1483 1483 1482 1481 1480 1481 1482 1484 1487 1489 1491 1495 1498 1502 1506 1510 1514 1518 1522 1526 1530 1533 1537 1540 1542 1545 1547 1550 1551 1553 1554 1556 1557 1558 1558 1559
1510 1510 1503 1489 1481 1481 1484 1486 1481 1481 1480 1479 1479 1482 1484 1484 1485 1487 1489 1492 1496 1499 1503 1508 1511 1516 1520 1524 1528 1531 1534 1537 1540 1543 1545 1547 1549 1551 1552 1554 1555 1556 1557 1558
1508 1508 1508 1492 1480 1478 1481 1488 1481 1479 1480 1480 1479 1487 1486 1484 1484 1486 1488 1491 1494 1498 1502 1506 1510 1514 1518 1521 1525 1528 1531 1535 1538 1541 1543 1545 1547 1549 1551 1553 1554 1555 1556 1557
1504 1505 1498 1484 1478 1478 1492 1490 1480 1479 1478 1479 1480 1482 1483 1483 1484 1485 1487 1490 1493 1496 1500 1504 1508 1512 1516 1519 1522 1526 1530 1533 1536 1539 1541 1544 1546 1548 1549 1551 1552 1553 1554 1555
1501 1504 1499 1479 1478 1482 1484 1479 1478 1478 1478 1478 1479 1480 1481 1482 1483 1485 1487 1489 1492 1495 1498 1502 1506 1510 1513 1516 1520 1524 1528 1531 1534 1537 1539 1541 1544 1545 1547 1549 1550 1551 1553 1553
1491 1492 1482 1478 1478 1478 1478 1478 1477 1477 1478 1478 1479 1479 1480 1481 1483 1484 1487 1489 1492 1494 1497 1501 1504 1508 1511 1514 1518 1522 1525 1528 1532 1534 1537 1539 1541 1543 1545 1547 1548 1549 1550 1551
1486 1483 1480 1479 1478 1478 1478 1477 1477 1477 1477 1478 1478 1479 1480 1481 1482 1484 1487 1489 1491 1493 1496 1500 1503 1506 1510 1513 1517 1520 1523 1526 1529 1532 1534 1537 1539 1541 1542 1544 1545 1546 1547 1548
1484 1482 1480 1479 1479 1478 1478 1478 1477 1477 1478 1478 1478 1478 1479 1480 1482 1484 1486 1488 1490 1493 1495 1498 1502 1505 1509 1512 1515 1518 1521 1524 1527 1529 1532 1534 1536 1538 1539 1541 1543 1544 1545 1546
1482 1478 1479 1479 1479 1479 1478 1478 1477 1477 1477 1477 1478 1478 1479 1480 1482 1484 1485 1488 1490 1492 1495 1497 1500 1503 1507 1510 1513 1516 1519 1522 1524 1527 1529 1531 1533 1535 1537 1539 1540 1541 1543 1543
1475 1476 1477 1477 1478 1478 1478 1478 1478 1478 1477 1477 1478 1478 1479 1480 1482 1483 1485 1487 1489 1492 1494 1497 1499 1502 1505 1508 1511 1513 1516 1518 1521 1523 1525 1527 1529 1531 1533 1535 1537 1538 1539 1540
1474 1475 1476 1476 1477 1477 1477 1477 1477 1478 1478 1478 1478 1478 1479 1480 1481 1483 1484 1486 1489 1491 1493 1496 1498 1500 1503 1506 1508 1511 1513 1516 1518 1520 1522 1524 1526 1528 1530 1531 1532 1533 1535 1536
1474 1474 1475 1475 1476 1476 1476 1477 1477 1477 1477 1478 1478 1479 1479 1480 1481 1483 1484 1486 1488 1490 1492 1494 1496 1499 1501 1504 1506 1509 1511 1513 1515 1517 1519 1521 1523 1525 1526 1528 1529 1530 1531 1532
1472 1473 1474 1474 1475 1475 1475 1476 1476 1477 1477 1478 1478 1479 1480 1480 1482 1483 1484 1485 1486 1488 1490 1492 1494 1496 1499 1502 1504 1506 1509 1511 1512 1514 1516 1518 1520 1521 1523 1524 1525 1526 1527 1528
1470 1471 1472 1473 1474 1474 1475 1475 1476 1477 1477 1478 1479 1479 1480 1481 1482 1483 1484 1485 1486 1487 1489 1491 1493 1495 1497 1499 1501 1503 1506 1508 1510 1511 1513 1515 1516 1518 1519 1520 1521 1522 1523 1525
1469 1470 1471 1472 1473 1473 1474 1475 1476 1476 1477 1478 1479 1479 1480 1480 1481 1482 1483 1484 1485 1487 1488 1490 1491 1493 1495 1497 1499 1501 1503 1505 1506 1508 1509 1511 1513 1515 1516 1517 1518 1519 1520 1521
1468 1469 1471 1472 1472 1473 1474 1474 1475 1476 1477 1478 1478 1479 1479 1480 1481 1482 1483 1483 1484 1485 1486 1488 1490 1491 1493 1495 1497 1499 1500 1502 1503 1505 1506 1508 1510 1511 1512 1513 1514 1515 1516 1517
1468 1469 1470 1471 1472 1473 1473 1474 1475 1476 1476 1477 1478 1478 1479 1480 1480 1481 1482 1482 1483 1484 1485 1486 1488 1489 1491 1493 1494 1496 1497 1499 1500 1502 1503 1505 1506 1508 1509 1510 1511 1512 1512 1513
1467 1468 1469 1470 1471 1472 1473 1474 1474 1475 1476 1476 1477 1477 1478 1479 1480 1481 1481 1482 1483 1484 1484 1485 1486 1487 1489 1490 1492 1493 1495 1496 1498 1499 1500 1502 1503 1504 1505 1506 1507 1508 1508 1508
1467 1468 1469 1470 1471 1472 1472 1473 1473 1474 1474 1475 1476 1476 1477 1478 1479 1479 1480 1481 1481 1482 1483 1483 1484 1485 1486 1488 1489 1491 1493 1494 1495 1496 1498 1499 1500 1501 1502 1503 1503 1504 1504 1504
1467 1468 1469 1470 1470 1471 1472 1472 1473 1473 1473 1474 1474 1475 1476 1476 1477 1477 1478 1479 1480 1480 1481 1481 1482 1483 1484 1485 1487 1488 1490 1491 1492 1494 1495 1496 1497 1498 1499 1499 1500 1500 1500 1500
1466 1467 1468 1469 1470 1470 1471 1471 1472 1472 1472 1473 1473 1474 1474 1475 1475 1476 1477 1477 1478 1478 1479 1479 1480 1480 1481 1482 1483 1485 1486 1488 1489 1490 1492 1493 1494 1495 1495 1496 1496 1496 1496 1496
1465 1467 1468 1469 1469 1469 1470 1470 1471 1471 1471 1471 1472 1473 1473 1473 1474 1474 1475 1475 1475 1476 1476 1477 1478 1479 1479 1480 1481 1482 1483 1485 1486 1487 1488 1489 1490 1491 1491 1492 1492 1491 1491 1491
1464 1466 1467 1467 1468 1468 1469 1469 1469 1470 1470 1470 1470 1471 1472 1472 1472 1472 1473 1473 1473 1474 1474 1475 1476 1477 1477 1478 1479 1479 1481 1482 1483 1484 1485 1485 1486 1487 1487 1487 1487 1487 1486 1486
1463 1464 1465 1466 1466 1467 1467 1468 1468 1468 1469 1469 1469 1469 1470 1470 1470 1471 1471 1471 1472 1472 1473 1473 1474 1475 1476 1476 1477 1478 1479 1479 1480 1481 1481 1482 1482 1483 1483 1483 1482 1482 1482 1481